Regional Weather Roundup
Issued by NWS Newport/Morehead, NC

Current Version | Previous Version | Graphics & Text | Print | Product List | Glossary On
Versions: 1 2 3 4 5 6 7 8 9 10 11 12 13 14 15 16 17 18 19 20 21 22 23 24 25 26 27 28 29 30 31 32 33 34 35 36 37 38 39 40 41 42 43 44 45 46 47 48 49 50
000 ASUS42 KMHX 051425 RWRMHX WEATHER ROUNDUP FOR EASTERN NORTH CAROLINA NATIONAL WEATHER SERVICE NEWPORT/MOREHEAD CITY NC 1000 AM EDT SUN JUL 05 2015 NOTE: "FAIR" INDICATES FEW OR NO CLOUDS BELOW 12,000 FEET WITH NO SIGNIFICANT WEATHER AND/OR OBSTRUCTIONS TO VISIBILITY NCZ015>017-031-032-045>047-102-103-051500- NORTH COAST CITY SKY/WX TMP DP RH WIND PRES REMARKS EDENTON PTSUNNY 80 72 78 SW5 30.13R ELIZABETH CITY PTSUNNY 81 74 79 SW6 30.12S KITTY HAWK CLOUDY 81 74 79 SW3 30.12S MANTEO CLOUDY 79 73 81 W6 30.14R $$ NCZ045>047-081-094-103-104-051500- CENTRAL COAST CITY SKY/WX TMP DP RH WIND PRES REMARKS FRISCO PTSUNNY 78 73 84 SW9 30.15S SWANQUARTER N/A 82 N/A N/A W7 30.09S $$ NCZ095-097-098-100-101-051500- SOUTHERN COAST CITY SKY/WX TMP DP RH WIND PRES REMARKS BEAUFORT CLOUDY 82 72 71 SW13 30.15S CEDAR ISLAND N/A 88 N/A N/A SW5G14 30.18S JACKSONVILLE CLOUDY 79 69 71 SW7 30.15R PINEY ISLAND CLOUDY N/A N/A N/A SW10 30.14S WILMINGTON PTSUNNY 82 69 64 SW9 30.15F $$ NCZ011>013-027>030-043-044-078>080-089-090>093-098-051500- COASTAL PLAIN CITY SKY/WX TMP DP RH WIND PRES REMARKS AHOSKIE SUNNY N/A N/A N/A CALM 30.12S HAZE CLINTON MOSUNNY 79 72 77 CALM 30.14S ELIZABETHTOWN SUNNY 81 69 67 CALM 30.14S GOLDSBORO MOSUNNY 81 72 72 SW5 30.11S GREENVILLE MOSUNNY 81 73 78 SW5 30.14S HAVELOCK CLOUDY 82 69 64 SW10 30.16S KENANSVILLE MOSUNNY 81 69 65 S3 30.15R KINSTON MOSUNNY 81 70 69 S6 30.14S NEW BERN CLOUDY 82 71 69 SW8 30.16R RICHLANDS PTSUNNY 82 66 57 SW6 30.15S ROCKY MOUNT SUNNY 83 73 72 SW5 30.12S WASHINGTON PTSUNNY 81 73 78 S5 30.14R WHITEVILLE SUNNY 79 69 72 S6 30.15S $$ AMZ130-135-150-152-154-156-158-170-250-252-270-ANZ085-086-088-633-658-670-051500- MARINE OBSERVATIONS STATION/POSITION TIME TEMP WIND PRES WAVE SWELL AIR SEA DIR/SP/G HT/PER HT/PER (UTC) (F) (DEG/KT/KT) (MB) (FT/S) (FT/S) CHESAPEAKE LIGHT 1400 75 30/ 8/ 9 1020.9 64 E VA BEACH 1350 77 77 50/ 2/ 4 1019.8 3/ 7 3/ 7 DUCK 1400 79 75 260/ 6/ 7 N/A 2 E DUCK 1311 78 N/A 2/14 OREGON INLET 1400 79 79 230/ 9/ 10 1020.2 13E OREGON INLT 1400 77 N/A 3/ 6 HATTERAS CG 1400 81 79 220/ 8/ 13 1020.4 DIAMOND BUOY 1350 80 81 240/ 16/ 17 1020.6 4/ 6 2/ 9 CAPE LOOKOUT 1400 82 230/ 10/ 13 1020.8 BEAUFORT LAB 1400 82 80 230/ 4/ 9 1020.3 30 SE NEW RVR IN NOT AVBL 27 SE WRIGHTSVLE 1400 80 250/ 10/ 12 N/A 5 SE WRIGHTSVLE 1308 78 78 250/ 6/ 8 1021.3 225 S CAPE HAT 1350 81 80 230/ 4/ 6 1023.6 4/ 9 3/ 9 41 SE CHARLESTON 1350 81 82 220/ 10/ 12 1021.0 3/ 9 2/ 9 $$

USA.gov is the U.S. government's official web portal to all federal, state and local government web resources and services.